Wind_Speed
9 9 8 8 8 8 7 6 6 6 6 5 5 5 4 4 4 4 4 4 5 5 5 5 5 5 6 6 6 7 7 7 7 7 7 7 7 7 7 7 7 7 6
8 8 8 8 7 7 7 6 6 6 5 5 4 4 4 4 4 4 4 4 4 4 5 5 5 5 6 6 6 7 7 6 7 7 7 7 7 7 7 7 7 7 7
8 7 7 7 7 7 6 6 6 5 5 5 4 4 4 4 4 4 4 4 4 4 4 4 5 5 5 6 6 6 6 6 7 6 6 7 7 7 7 7 7 7 7
7 7 7 7 7 6 6 6 6 5 5 5 4 4 3 3 3 3 4 3 4 4 4 4 4 4 5 5 6 5 5 6 6 6 6 7 7 7 7 7 6 6 7
7 7 7 7 6 6 6 6 6 6 5 5 4 4 3 3 3 3 3 3 3 3 3 3 3 4 5 5 5 5 5 6 6 6 6 7 7 7 7 6 6 6 6
7 7 7 7 6 6 6 6 6 6 5 5 5 4 3 3 2 2 3 3 3 3 3 3 3 4 4 4 4 5 5 5 6 7 7 6 7 7 7 6 6 6 6
7 6 6 6 6 6 6 5 5 5 5 5 5 5 4 3 2 2 2 2 3 3 3 3 3 4 4 4 4 5 5 5 6 6 6 6 6 6 6 6 7 6 6
6 6 6 6 6 6 6 5 4 4 4 4 4 5 4 3 3 2 2 2 3 3 3 3 3 3 4 4 4 5 5 5 6 6 5 6 6 6 6 6 6 7 7
6 6 6 6 6 6 6 5 4 4 4 4 4 4 4 3 3 2 2 2 2 3 3 3 3 4 4 4 4 5 5 5 5 5 5 5 6 6 6 6 6 6 6
7 6 6 7 6 6 5 5 4 4 4 3 3 3 3 3 2 2 2 2 2 2 3 3 4 4 5 4 4 5 5 5 5 5 5 5 5 5 5 5 6 6 5
6 6 6 6 6 5 5 5 5 4 3 3 3 3 3 2 2 2 2 2 2 3 3 3 4 4 5 5 4 4 5 5 5 5 4 4 5 5 5 5 5 5 5
7 7 6 6 6 6 5 5 5 4 4 3 2 2 2 2 2 2 1 2 2 3 3 3 3 4 4 4 4 4 4 4 4 4 4 4 4 4 5 4 4 4 4
7 7 7 6 6 6 6 4 4 4 4 3 3 2 2 2 1 1 1 2 2 3 2 3 3 3 4 4 4 4 4 4 4 3 4 4 3 3 3 4 4 3 3
8 8 7 6 5 6 5 4 4 4 3 3 3 3 2 2 1 0 1 1 2 2 2 2 3 3 3 3 3 3 2 3 3 3 3 3 3 3 2 2 2 2 2
8 7 6 6 5 5 4 4 4 3 3 2 2 2 2 1 1 1 1 1 1 2 1 1 2 2 2 2 2 1 1 1 2 2 2 2 2 2 2 1 1 1 0
10 9 7 6 5 5 4 4 3 3 2 1 2 1 1 1 1 1 1 1 1 1 0 0 0 1 1 1 1 0 1 1 1 1 2 2 1 1 1 1 0 1 1
11 9 9 8 6 5 5 4 3 2 2 2 1 1 1 1 2 1 1 1 1 0 1 1 1 0 0 0 0 1 1 1 1 1 1 1 1 1 1 1 1 1 1
11 9 9 9 8 6 5 4 3 2 1 2 2 1 1 1 2 2 2 1 1 1 2 2 2 2 2 1 1 1 2 2 2 2 2 2 2 2 2 2 2 2 2
10 10 9 9 8 7 6 5 4 2 1 1 2 1 1 1 2 3 3 2 2 2 3 3 3 3 3 3 3 3 3 3 3 4 4 4 4 4 4 4 4 4 4
10 10 9 9 8 7 6 5 4 3 2 2 2 2 2 2 3 3 3 4 3 3 4 4 4 4 4 5 5 5 5 6 6 6 6 6 6 6 6 6 6 6 6
11 10 9 9 8 7 7 6 4 3 3 3 3 4 3 3 3 3 4 4 4 4 4 4 5 5 6 6 7 7 7 7 8 8 8 8 8 8 8 8 9 9 9
10 10 10 9 8 7 7 7 5 4 4 4 5 5 4 4 4 4 4 4 5 5 6 6 6 7 8 8 9 9 9 10 10 10 11 10 10 10 10 10 11 11 11
11 11 10 9 8 7 7 7 6 5 5 5 5 6 5 5 5 5 5 6 7 7 7 7 8 8 9 9 10 10 11 12 12 12 13 13 12 12 12 13 13 14 14
11 11 9 9 9 8 7 8 7 7 6 5 4 5 5 4 4 5 6 6 7 7 8 9 9 10 11 11 12 12 13 13 14 14 15 15 14 15 15 15 15 15 16
11 10 10 10 10 9 8 8 8 7 6 5 4 4 4 3 4 4 5 5 6 6 8 9 10 11 11 12 13 14 14 15 15 14 14 15 16 17 17 17 17 18 19
10 10 10 10 10 9 9 8 8 8 7 5 5 4 5 4 4 4 5 6 6 8 9 10 10 11 12 13 14 15 15 15 16 16 15 16 16 18 18 19 20 20 20
Wind_Direction
80 81 80 77 72 66 59 53 50 50 48 47 46 45 48 52 58 70 78 83 85 87 90 94 94 93 90 91 90 90 91 95 92 91 92 91 91 91 93 95 95 91 94
79 81 77 73 68 62 54 47 45 44 42 42 43 43 50 56 60 67 71 76 82 83 85 89 94 92 89 88 87 89 91 94 93 92 91 89 89 90 93 95 94 93 95
80 80 77 72 66 59 49 43 39 37 37 37 38 44 53 55 58 60 66 72 80 82 86 90 90 92 91 89 89 89 90 90 91 92 90 90 90 89 92 94 93 95 95
77 77 75 69 64 58 48 40 35 32 32 33 33 44 54 55 53 56 66 72 80 84 91 91 87 92 93 90 86 86 87 86 87 91 90 89 88 87 91 93 95 96 99
70 71 70 65 61 54 47 42 38 34 32 33 38 48 52 51 53 59 73 79 84 85 87 90 86 87 89 90 87 83 82 83 87 89 89 89 88 91 95 98 100 104 108
66 66 66 64 57 51 46 45 41 37 35 37 42 41 41 48 55 64 77 84 85 86 90 90 84 87 88 91 90 84 84 87 87 89 89 90 93 96 99 103 104 108 109
61 61 59 57 52 46 43 45 45 42 37 39 40 40 43 46 50 64 75 83 84 84 89 81 77 87 90 91 90 88 87 89 91 90 90 90 96 100 99 102 103 104 106
53 52 53 50 46 43 39 41 46 46 42 41 40 39 41 41 50 60 67 69 74 81 83 80 74 85 88 86 84 87 85 86 89 87 89 90 96 98 100 99 98 101 102
48 50 51 46 41 40 39 43 44 42 42 40 35 36 43 42 47 53 66 69 77 81 86 88 78 84 92 90 87 87 89 88 88 86 86 87 91 95 99 100 101 100 103
52 52 52 46 40 38 36 41 42 36 36 32 26 32 41 45 46 48 64 77 78 81 88 89 85 86 92 94 90 85 87 85 84 79 81 80 88 93 95 99 99 99 102
53 51 51 48 43 43 38 34 32 31 33 29 23 27 33 40 37 29 63 83 92 93 95 91 92 93 96 95 90 79 84 81 76 77 77 77 83 92 99 98 100 100 103
52 47 45 44 42 40 38 34 33 31 30 25 15 26 32 30 25 18 63 91 103 102 99 98 95 93 99 93 87 77 75 72 72 76 78 77 83 95 97 96 99 100 106
52 50 44 39 36 34 35 35 37 32 33 30 29 30 27 22 18 27 88 102 109 105 97 101 104 100 104 97 87 78 71 70 70 73 78 78 85 92 92 92 96 97 100
51 49 44 37 33 31 34 34 30 28 27 32 37 36 38 42 50 100 115 111 106 96 95 96 92 92 100 101 91 75 74 79 72 69 69 78 85 84 85 85 88 89 97
49 47 43 37 31 30 34 31 24 22 19 25 43 52 45 57 78 111 126 111 105 92 102 113 86 77 83 100 103 80 66 75 74 62 63 67 78 77 82 74 60 34 41
40 39 38 32 26 25 24 29 22 20 19 26 43 40 64 113 109 91 141 138 116 104 125 132 101 76 97 110 111 77 43 37 45 25 36 48 64 67 76 67 25 327 285
32 33 31 27 26 29 27 25 18 17 24 23 30 34 63 150 163 135 128 149 144 187 220 206 204 244 240 132 304 299 330 351 349 340 344 356 357 331 334 329 326 312 282
27 28 26 25 26 29 29 20 21 23 9 15 20 25 22 223 198 192 187 216 241 255 245 241 242 256 265 268 271 278 291 305 303 296 299 304 297 285 283 290 298 296 286
26 26 26 25 24 28 30 24 25 19 328 332 337 330 309 277 240 227 213 216 245 258 252 253 259 260 262 268 266 262 266 272 278 281 288 288 288 282 273 277 284 284 279
25 24 23 22 21 23 21 19 19 2 329 331 333 315 295 271 254 234 225 222 233 248 256 257 256 258 261 263 265 262 261 264 267 271 280 282 283 280 271 272 276 277 271
22 19 18 16 15 15 15 15 12 352 330 320 322 306 289 269 253 244 248 231 235 245 253 253 251 258 264 266 267 268 265 266 269 270 274 276 277 275 272 271 273 271 269
15 13 10 9 12 12 12 9 4 347 331 321 309 318 294 265 248 243 251 247 248 251 253 258 259 260 262 268 272 271 265 269 271 269 269 270 272 274 271 271 272 271 271
9 6 3 1 360 2 2 0 354 338 328 324 313 303 299 272 255 254 264 260 256 254 258 262 265 265 265 268 272 271 267 267 270 269 267 266 268 270 270 270 271 274 273
2 1 358 359 359 357 357 355 353 343 334 327 317 303 296 282 263 269 270 264 260 255 261 265 267 270 268 268 270 271 271 270 270 270 269 267 266 269 270 269 270 275 274
360 359 358 357 356 353 351 352 353 347 338 328 318 306 299 292 275 272 274 275 266 265 266 268 272 274 275 274 274 274 275 272 271 270 271 272 270 270 269 269 270 272 273
356 355 354 353 352 349 347 347 347 346 339 330 323 312 300 288 279 278 281 281 281 279 274 271 274 278 279 279 276 276 278 275 272 270 270 270 272 272 270 270 271 271 272
Height
5901 5901 5901 5901 5901 5901 5901 5901 5901 5901 5900 5900 5899 5899 5898 5898 5897 5897 5896 5896 5896 5895 5895 5895 5894 5894 5893 5893 5893 5892 5892 5891 5891 5891 5891 5891 5891 5890 5890 5890 5890 5890 5889
5902 5902 5902 5902 5902 5902 5902 5902 5902 5902 5901 5901 5900 5900 5899 5899 5898 5898 5898 5897 5897 5896 5896 5896 5895 5895 5894 5894 5893 5893 5893 5892 5892 5892 5892 5892 5891 5891 5891 5891 5891 5891 5890
5903 5903 5904 5904 5903 5903 5903 5903 5903 5903 5902 5902 5901 5901 5900 5900 5900 5899 5899 5898 5898 5897 5897 5897 5896 5896 5895 5895 5894 5894 5894 5893 5893 5893 5893 5893 5892 5892 5892 5892 5892 5892 5891
5904 5904 5905 5905 5904 5904 5904 5904 5904 5904 5903 5903 5902 5902 5901 5901 5901 5900 5900 5899 5899 5898 5898 5898 5897 5897 5896 5896 5895 5895 5895 5894 5894 5894 5893 5893 5893 5893 5893 5893 5893 5892 5892
5905 5906 5906 5906 5905 5905 5905 5905 5905 5905 5904 5904 5903 5903 5902 5902 5902 5901 5900 5900 5900 5899 5899 5899 5898 5898 5897 5897 5896 5896 5895 5895 5895 5894 5894 5894 5894 5894 5893 5894 5893 5893 5893
5907 5907 5907 5907 5907 5906 5906 5906 5906 5906 5905 5905 5904 5904 5903 5903 5902 5902 5901 5901 5900 5900 5900 5899 5899 5898 5898 5898 5897 5897 5896 5896 5896 5896 5895 5895 5895 5895 5894 5894 5894 5894 5894
5908 5908 5908 5908 5907 5907 5907 5907 5907 5906 5906 5906 5905 5905 5904 5904 5903 5902 5902 5901 5901 5901 5901 5900 5900 5899 5899 5899 5898 5898 5897 5897 5897 5896 5896 5896 5896 5895 5895 5895 5895 5895 5895
5909 5909 5909 5908 5908 5908 5907 5907 5907 5907 5907 5906 5906 5905 5905 5904 5904 5903 5903 5902 5902 5902 5901 5901 5900 5900 5900 5900 5899 5899 5899 5898 5898 5897 5897 5897 5896 5896 5896 5896 5896 5896 5896
5910 5910 5910 5909 5909 5908 5908 5908 5907 5907 5907 5907 5906 5906 5905 5905 5904 5904 5903 5903 5903 5902 5902 5902 5901 5901 5901 5901 5900 5900 5899 5899 5899 5899 5898 5898 5897 5897 5897 5897 5896 5896 5896
5911 5911 5910 5910 5909 5909 5908 5908 5908 5907 5907 5907 5907 5906 5906 5905 5905 5904 5904 5904 5903 5903 5903 5902 5902 5902 5902 5901 5901 5901 5900 5900 5900 5900 5899 5899 5898 5898 5898 5897 5897 5897 5897
5912 5912 5911 5910 5910 5909 5909 5908 5908 5908 5907 5907 5907 5907 5906 5906 5905 5905 5905 5904 5904 5904 5904 5903 5903 5903 5903 5903 5902 5902 5902 5901 5900 5900 5900 5900 5899 5899 5899 5898 5898 5898 5898
5912 5912 5911 5911 5910 5909 5909 5909 5908 5908 5907 5907 5907 5907 5906 5906 5906 5906 5905 5905 5905 5905 5904 5904 5904 5905 5904 5904 5904 5903 5903 5902 5902 5902 5901 5901 5900 5900 5899 5899 5899 5898 5898
5913 5913 5912 5911 5911 5910 5909 5909 5908 5908 5908 5907 5907 5907 5907 5906 5906 5906 5906 5906 5906 5905 5905 5905 5905 5905 5905 5905 5905 5904 5904 5903 5903 5903 5902 5901 5901 5900 5900 5900 5899 5899 5899
5915 5914 5913 5912 5911 5910 5909 5909 5908 5908 5908 5907 5907 5907 5907 5906 5906 5906 5906 5906 5906 5906 5906 5906 5906 5906 5906 5906 5906 5905 5905 5904 5904 5903 5903 5902 5901 5901 5901 5900 5900 5899 5899
5915 5914 5914 5913 5912 5911 5910 5909 5909 5908 5908 5907 5907 5907 5907 5907 5907 5907 5907 5907 5907 5907 5906 5906 5906 5906 5907 5907 5906 5906 5905 5905 5904 5904 5903 5902 5902 5901 5901 5901 5900 5900 5899
5915 5914 5913 5912 5911 5910 5910 5909 5909 5908 5907 5907 5907 5907 5907 5907 5907 5907 5907 5907 5907 5907 5907 5907 5907 5907 5907 5907 5907 5906 5906 5905 5905 5904 5904 5903 5902 5902 5901 5901 5900 5900 5899
5915 5914 5913 5912 5911 5910 5910 5909 5908 5908 5907 5907 5907 5906 5906 5907 5907 5907 5907 5907 5907 5907 5907 5907 5907 5907 5907 5907 5907 5906 5906 5905 5905 5904 5904 5903 5902 5902 5901 5901 5900 5900 5899
5915 5914 5913 5912 5911 5910 5909 5909 5908 5908 5907 5907 5906 5906 5906 5906 5906 5906 5906 5907 5907 5907 5907 5907 5907 5907 5906 5906 5906 5906 5905 5905 5905 5904 5903 5903 5902 5902 5901 5901 5900 5899 5899
5917 5915 5913 5912 5911 5909 5909 5908 5908 5907 5907 5906 5906 5906 5906 5906 5906 5905 5905 5905 5906 5906 5906 5906 5906 5906 5906 5906 5905 5905 5905 5904 5904 5904 5903 5902 5902 5901 5900 5900 5899 5898 5898
5918 5916 5914 5912 5911 5910 5909 5908 5907 5907 5906 5905 5905 5905 5905 5905 5905 5905 5904 5904 5905 5905 5905 5905 5905 5905 5905 5905 5905 5904 5904 5903 5903 5903 5902 5901 5901 5900 5899 5899 5898 5897 5897
5918 5916 5914 5913 5911 5910 5909 5908 5907 5906 5905 5904 5904 5904 5904 5904 5904 5904 5903 5903 5903 5904 5903 5903 5904 5904 5904 5904 5903 5903 5903 5902 5902 5901 5901 5900 5899 5898 5898 5897 5896 5895 5895
5918 5916 5914 5912 5911 5909 5908 5907 5906 5905 5904 5903 5903 5902 5902 5902 5902 5902 5902 5902 5902 5902 5902 5902 5902 5902 5902 5902 5902 5901 5901 5901 5900 5899 5899 5898 5898 5897 5896 5895 5894 5893 5893
5918 5916 5914 5912 5910 5908 5907 5906 5905 5904 5903 5902 5901 5901 5900 5900 5900 5900 5900 5900 5900 5900 5900 5900 5900 5900 5900 5900 5899 5899 5898 5898 5898 5897 5896 5896 5895 5895 5894 5893 5892 5891 5890
5917 5915 5913 5912 5909 5908 5906 5905 5904 5903 5901 5900 5899 5899 5899 5899 5899 5899 5899 5899 5898 5898 5899 5898 5898 5898 5897 5897 5896 5896 5896 5895 5895 5894 5893 5893 5892 5891 5891 5890 5889 5888 5887
5917 5915 5913 5911 5909 5907 5905 5904 5903 5901 5900 5899 5898 5898 5897 5897 5897 5897 5897 5897 5897 5896 5896 5896 5896 5895 5895 5894 5893 5893 5892 5891 5891 5891 5890 5889 5888 5888 5887 5886 5885 5884 5883
5916 5914 5912 5910 5908 5906 5904 5903 5901 5900 5899 5898 5897 5896 5896 5896 5896 5895 5895 5895 5894 5894 5894 5894 5893 5892 5892 5891 5890 5889 5888 5887 5887 5886 5886 5885 5884 5883 5882 5882 5881 5879 5878